Location: Barnston
(51.8500°N, 0.4000°E)
Time: 20:04:02
(UTC+00:00)

ATLAS 5 CENTAUR R/B - Pass Details

Date: 26 September 2023
Orbit: 432 x 1181 km, 63.3° (Epoch: 28 November)

Event Time Altitude Azimuth Distance (km) Brightness Sun altitude
Exits shadow 02:42:47 33° 26° (NNE) 891 2.8 -27.7°
Drops below altitude 10° 02:45:21 10° 41° (NE) 1,865 5.0 -27.4°
Enters shadow 03:50:02 -65° 238° (WSW) 12,433 8.1 -18.9°
